This demonstration page uses our WeatherBlox Daily Observations layout. Learn more.

Left ArrowRight Arrow

39.01783, -85.05884

Hourly Observations for September 3, 2017

Temp ( °F °C ) Dew Point ( °F °C ) Humidity (%) Winds ( mph kmh ) Pressure ( in mb ) Visibility ( mi km ) Precip ( " mm )
12:52 am 00:52 Clear 58 14.4 58 14.4 100 100 SSW 9 15 30.01 1016 10 16 0.00 0.00
1:06 am 01:06 Cloudy with Mist and Fog 58 14.4 58 14.4 100 100 SW 7 11 30.03 1017 6 10 0.00 0.00
1:52 am 01:52 Mostly Cloudy with Mist and Fog 58 14.4 58 14.4 100 100 SSW 8 13 30.01 1016 6 10 0.00 0.00
2:52 am 02:52 Cloudy with Mist and Fog 58 14.4 58 14.4 100 100 SW 8 13 30.02 1017 3 5 0.00 0.00
3:52 am 03:52 Cloudy with Mist and Fog 57 13.9 57 13.9 100 100 SW 6 9 30.01 1016 6 10 0.00 0.00
4:52 am 04:52 Cloudy with Mist and Fog 56 13.3 56 13.3 100 100 SW 6 9 30.00 1016 6 10 0.00 0.00
5:52 am 05:52 Cloudy with Mist and Fog 57 13.9 57 13.9 100 100 SW 6 9 30.01 1016 5 8 0.00 0.00
6:38 am 06:38 Cloudy with Mist and Fog 57 13.9 57 13.9 100 100 SSW 6 9 30.03 1017 6 10 0.00 0.00
6:52 am 06:52 Cloudy 57 13.9 57 13.9 100 100 SW 6 9 30.03 1017 10 16 0.00 0.00
7:52 am 07:52 Cloudy with Mist and Fog 57 13.9 57 13.9 100 100 WSW 5 7 30.04 1017 4 6 0.00 0.00
8:52 am 08:52 Cloudy 58 14.4 58 14.4 100 100 SSW 6 9 30.04 1017 8 13 0.00 0.00
9:52 am 09:52 Mostly Cloudy 61 16.1 57 13.9 87 87 SW 7 11 30.04 1017 10 16 0.00 0.00
10:52 am 10:52 Partly Cloudy 67 19.4 57 13.9 71 71 W 6 9 30.04 1017 10 16 0.00 0.00
11:52 am 11:52 Partly Cloudy 71 21.7 58 14.4 63 63 SW 7 11 30.04 1017 10 16 0.00 0.00
12:52 pm 12:52 Partly Cloudy 73 22.8 58 14.4 59 59 WSW 10 17 30.04 1017 10 16 0.00 0.00
1:52 pm 13:52 Mostly Cloudy 77 25 61 16.1 58 58 W 7 11 30.02 1017 10 16 0.00 0.00
2:52 pm 14:52 Partly Cloudy 77 25 62 16.7 60 60 WSW 7 11 30.02 1017 10 16 0.00 0.00
3:52 pm 15:52 Partly Cloudy 79 26.1 61 16.1 54 54 WSW 10 17 30.01 1016 10 16 0.00 0.00
4:52 pm 16:52 Partly Cloudy 79 26.1 61 16.1 54 54 WSW 7 11 30.01 1016 10 16 0.00 0.00
5:52 pm 17:52 Partly Cloudy 79 26.1 60 15.6 52 52 WNW 10 17 30.01 1016 10 16 0.00 0.00
6:52 pm 18:52 Partly Cloudy 77 25 59 15 54 54 WNW 9 15 30.02 1017 10 16 0.00 0.00
7:52 pm 19:52 Partly Cloudy 72 22.2 61 16.1 68 68 W 5 7 30.02 1017 10 16 0.00 0.00
8:52 pm 20:52 Partly Cloudy 67 19.4 61 16.1 81 81 SSW 3 6 30.02 1017 10 16 0.00 0.00
9:52 pm 21:52 Mostly Clear 65 18.3 62 16.7 90 90 Calm 30.03 1017 10 16 0.00 0.00
10:52 pm 22:52 Mostly Clear 63 17.2 61 16.1 93 93 S 5 7 30.02 1017 9 14 0.00 0.00
11:52 pm 23:52 Clear 62 16.7 60 15.6 93 93 S 6 9 30.01 1016 9 14 0.00 0.00

Powered by AerisWeather